Flag for Peru Weather past 2 weeks in Iquitos, Loreto, Peru

Now
77 °F

Broken clouds.


Feels Like: 78 °F
Forecast: 72 / 93 °F
Wind: No wind

Location: Iquitos Airport


UV Index: 7 (High)

Visibility: N/A


Pressure: 29.83 "Hg

Humidity: 94%

Dew point: 75 °F

Location of IquitosLocation

Historic Weather in Iquitos

°F

Iquitos temperature yesterday

Maximum temperature yesterday: 90 °F (at 1:00 PM)
Minimum temperature yesterday: 73 °F (at 2:00 AM)
Average temperature yesterday: 79 °F

Past Weeks' High & Low Weather Summary

 TemperatureHumidityPressure
High91 °F (Apr 4, 4:00 PM)100% (Apr 8, 8:00 AM)30.01 "Hg (Apr 8, 8:00 AM)
Low72 °F (Apr 6, 5:00 AM)49% (Apr 10, 3:00 PM)29.74 "Hg (Apr 4, 4:00 PM)
Average79 °F84%29.86 "Hg
* Reported Apr 3 5:00 AM — Apr 18 5:00 AM, Iquitos, Weather by CustomWeather, © 2014

Note: Actual official high and low records may vary slightly from our data, if they occured in-between our weather recording intervals... More about our weather records

Advertising

Historic Weather Conditions — Data for Previous 24 hours

 ConditionsComfort  
Time TempWeatherWind HumidityBarometerVisibility
5:00 AM
Apr 18
77 °FPartly cloudy.No wind94%29.83 "HgN/A
4:00 AM77 °FPartly cloudy.No wind94%29.83 "HgN/A
3:00 AM77 °FPartly cloudy.No wind94%29.83 "HgN/A
2:00 AM77 °FPassing clouds.No wind94%29.80 "HgN/A
1:00 AM75 °FClear.No wind94%29.83 "Hg10 mi
12:00 AM77 °FPassing clouds.No wind94%29.86 "HgN/A
11:00 PM
Apr 17
77 °FPassing clouds.No wind94%29.86 "HgN/A
10:00 PM77 °FPassing clouds.No wind94%29.89 "HgN/A
9:00 PM79 °FScattered showers. Passing clouds.No wind89%29.86 "HgN/A
8:00 PM79 °FPartly cloudy.No wind89%29.83 "HgN/A
7:00 PM77 °FPassing clouds.No wind89%29.80 "HgN/A
6:00 PM81 °FLight rain. Passing clouds.6 mph84%29.77 "Hg5 mi
5:00 PM82 °FScattered showers. Broken clouds.5 mph79%29.77 "HgN/A
4:00 PM86 °FScattered showers. Scattered clouds.3 mph70%29.74 "HgN/A
3:00 PM86 °FScattered showers. Partly sunny.6 mph66%29.77 "HgN/A
2:00 PM82 °FSprinkles. Broken clouds.12 mph79%29.80 "Hg5 mi
1:00 PM90 °FScattered clouds.3 mph59%29.83 "HgN/A
11:00 AM84 °FPartly sunny.5 mph74%29.92 "HgN/A
10:00 AM82 °FPartly sunny.6 mph79%29.92 "HgN/A
9:00 AM81 °FPartly sunny.3 mph84%29.92 "HgN/A
8:00 AM77 °FFog.3 mph94%29.89 "Hg5 mi
7:00 AM75 °FFog.No wind94%29.86 "Hg1 mi
6:00 AM73 °FFog.No wind94%29.86 "Hg0 mi
Weather by CustomWeather, © 2014

See weather overview